• In Hungary
  • List of Countries
  • For 7 days
  • Water Temperature
  • Satellite Maps
  • Weather Map
  • News
  • Weather Widgets
  • user-avatar
    Login

    Hourly Weather Asmera

    Today, 22 May, Tuesday

    Time Temperature Precipitation Wind Pressure Humidity
    00:00 +20°C° 0.1 mm 2 mps 579 mmHg 45%
    01:00 +21°C° 0 mm 1 mps 579 mmHg 45%
    02:00 +21°C° 0 mm 1 mps 579 mmHg 46%
    03:00 +20°C° 0 mm 1 mps 579 mmHg 46%
    04:00 +20°C° 0 mm 1 mps 579 mmHg 46%
    05:00 +19°C° 0 mm 1 mps 579 mmHg 47%
    06:00 +17°C° 0 mm 0 mps 579 mmHg 48%
    07:00 +20°C° 0 mm 1 mps 579 mmHg 41%
    08:00 +22°C° 0 mm 1 mps 580 mmHg 35%
    09:00 +23°C° 0 mm 2 mps 581 mmHg 29%
    10:00 +24°C° 0 mm 2 mps 581 mmHg 26%
    11:00 +25°C° 0 mm 2 mps 582 mmHg 23%
    12:00 +26°C° 0 mm 3 mps 582 mmHg 21%
    13:00 +26°C° 0 mm 3 mps 582 mmHg 21%
    14:00 +27°C° 0 mm 3 mps 582 mmHg 21%
    15:00 +27°C° 0 mm 3 mps 582 mmHg 21%
    16:00 +26°C° 0 mm 3 mps 581 mmHg 24%
    17:00 +26°C° 0 mm 3 mps 581 mmHg 26%
    18:00 +25°C° 0 mm 4 mps 580 mmHg 29%
    19:00 +24°C° 0 mm 3 mps 580 mmHg 30%
    20:00 +24°C° 0 mm 2 mps 580 mmHg 31%
    21:00 +23°C° 0 mm 2 mps 580 mmHg 32%
    22:00 +22°C° 0 mm 1 mps 580 mmHg 32%
    23:00 +22°C° 0 mm 1 mps 580 mmHg 32%

    Tomorrow, 23 May, Wednesday

    Time Temperature Precipitation Wind Pressure Humidity
    00:00 +21°C° 0 mm 1 mps 580 mmHg 32%
    01:00 +21°C° 0 mm 1 mps 580 mmHg 32%
    02:00 +20°C° 0 mm 1 mps 580 mmHg 33%
    03:00 +20°C° 0 mm 1 mps 579 mmHg 33%
    04:00 +19°C° 0 mm 1 mps 579 mmHg 33%
    05:00 +17°C° 0 mm 0 mps 579 mmHg 33%
    06:00 +17°C° 0 mm 0 mps 579 mmHg 33%
    07:00 +20°C° 0 mm 1 mps 580 mmHg 31%
    08:00 +22°C° 0 mm 1 mps 581 mmHg 29%
    09:00 +23°C° 0 mm 1 mps 582 mmHg 27%
    10:00 +24°C° 0 mm 2 mps 582 mmHg 25%
    11:00 +26°C° 0 mm 2 mps 583 mmHg 23%
    12:00 +27°C° 0 mm 3 mps 583 mmHg 21%
    13:00 +27°C° 0 mm 3 mps 583 mmHg 20%
    14:00 +27°C° 0 mm 4 mps 582 mmHg 20%
    15:00 +28°C° 0 mm 4 mps 582 mmHg 20%
    16:00 +27°C° 0 mm 4 mps 581 mmHg 20%
    17:00 +26°C° 0 mm 4 mps 581 mmHg 21%
    18:00 +26°C° 0 mm 3 mps 581 mmHg 21%
    19:00 +25°C° 0 mm 3 mps 581 mmHg 23%
    20:00 +24°C° 0 mm 2 mps 580 mmHg 25%
    21:00 +23°C° 0 mm 1 mps 580 mmHg 27%
    22:00 +23°C° 0 mm 1 mps 580 mmHg 28%
    23:00 +22°C° 0 mm 1 mps 580 mmHg 28%

    Day after tomorrow, 24 May, Thursday

    Time Temperature Precipitation Wind Pressure Humidity
    00:00 +21°C° 0 mm 1 mps 579 mmHg 29%
    01:00 +21°C° 0 mm 1 mps 579 mmHg 30%
    02:00 +18°C° 0 mm 0 mps 579 mmHg 30%
    03:00 +18°C° 0 mm 0 mps 578 mmHg 31%
    04:00 +17°C° 0 mm 0 mps 578 mmHg 32%
    05:00 +17°C° 0 mm 0 mps 578 mmHg 32%
    06:00 +19°C° 0 mm 1 mps 578 mmHg 33%
    07:00 +20°C° 0 mm 1 mps 579 mmHg 30%
    08:00 +22°C° 0 mm 1 mps 580 mmHg 28%
    09:00 +24°C° 0 mm 2 mps 581 mmHg 26%
    10:00 +25°C° 0 mm 2 mps 582 mmHg 24%
    11:00 +26°C° 0 mm 3 mps 582 mmHg 22%
    12:00 +27°C° 0 mm 3 mps 582 mmHg 20%
    13:00 +27°C° 0 mm 3 mps 582 mmHg 20%
    14:00 +28°C° 0 mm 4 mps 581 mmHg 20%
    15:00 +28°C° 0 mm 4 mps 581 mmHg 20%
    16:00 +27°C° 0 mm 4 mps 580 mmHg 21%
    17:00 +27°C° 0 mm 4 mps 580 mmHg 23%
    18:00 +26°C° 0 mm 4 mps 580 mmHg 24%
    19:00 +25°C° 0.2 mm 3 mps 580 mmHg 27%
    20:00 +24°C° 0.2 mm 2 mps 580 mmHg 30%
    21:00 +23°C° 0.2 mm 2 mps 580 mmHg 32%
    22:00 +23°C° 0 mm 2 mps 580 mmHg 35%
    23:00 +23°C° 0 mm 2 mps 580 mmHg 37%

    25 May, Friday

    Time Temperature Precipitation Wind Pressure Humidity
    00:00 +21°C° 0 mm 2 mps 580 mmHg 39%
    01:00 +21°C° 0 mm 2 mps 579 mmHg 43%
    02:00 +20°C° 0 mm 2 mps 578 mmHg 46%
    03:00 +20°C° 0 mm 1 mps 578 mmHg 50%
    04:00 +20°C° 0 mm 1 mps 578 mmHg 52%
    05:00 +19°C° 0 mm 1 mps 578 mmHg 55%
    06:00 +19°C° 0 mm 1 mps 578 mmHg 57%
    07:00 +20°C° 0 mm 1 mps 579 mmHg 48%
    08:00 +22°C° 0 mm 1 mps 580 mmHg 39%
    09:00 +24°C° 0 mm 1 mps 581 mmHg 30%
    10:00 +25°C° 0 mm 2 mps 581 mmHg 26%
    11:00 +27°C° 0 mm 3 mps 581 mmHg 21%
    12:00 +28°C° 0 mm 4 mps 582 mmHg 17%
    13:00 +28°C° 0 mm 4 mps 581 mmHg 16%
    14:00 +28°C° 0 mm 4 mps 581 mmHg 15%
    15:00 +29°C° 0 mm 4 mps 581 mmHg 15%
    16:00 +28°C° 0 mm 4 mps 580 mmHg 15%
    17:00 +27°C° 0 mm 4 mps 580 mmHg 16%
    18:00 +27°C° 0 mm 3 mps 580 mmHg 17%
    19:00 +26°C° 0 mm 3 mps 580 mmHg 20%
    20:00 +25°C° 0 mm 2 mps 580 mmHg 23%
    21:00 +24°C° 0 mm 2 mps 580 mmHg 26%
    22:00 +23°C° 0 mm 2 mps 579 mmHg 27%
    23:00 +23°C° 0 mm 1 mps 579 mmHg 29%

    26 May, Saturday

    Time Temperature Precipitation Wind Pressure Humidity
    00:00 +22°C° 0 mm 1 mps 579 mmHg 30%
    01:00 +22°C° 0 mm 1 mps 578 mmHg 32%
    02:00 +21°C° 0 mm 1 mps 578 mmHg 34%
    03:00 +20°C° 0 mm 1 mps 577 mmHg 36%
    04:00 +20°C° 0 mm 1 mps 577 mmHg 37%
    05:00 +19°C° 0 mm 1 mps 577 mmHg 39%
    06:00 +19°C° 0 mm 1 mps 577 mmHg 40%
    07:00 +21°C° 0 mm 1 mps 579 mmHg 35%
    08:00 +23°C° 0 mm 1 mps 580 mmHg 29%
    09:00 +25°C° 0 mm 1 mps 581 mmHg 24%
    10:00 +26°C° 0 mm 2 mps 581 mmHg 21%
    11:00 +27°C° 0 mm 3 mps 581 mmHg 17%
    12:00 +29°C° 0 mm 4 mps 582 mmHg 13%
    13:00 +29°C° 0 mm 4 mps 581 mmHg 13%
    14:00 +29°C° 0 mm 4 mps 581 mmHg 13%
    15:00 +29°C° 0 mm 4 mps 581 mmHg 12%
    16:00 +28°C° 0 mm 4 mps 580 mmHg 13%
    17:00 +28°C° 0 mm 4 mps 580 mmHg 13%
    18:00 +28°C° 0 mm 3 mps 580 mmHg 13%
    19:00 +26°C° 0 mm 3 mps 580 mmHg 14%
    20:00 +25°C° 0 mm 2 mps 580 mmHg 16%
    21:00 +24°C° 0 mm 1 mps 580 mmHg 17%
    22:00 +24°C° 0 mm 1 mps 579 mmHg 18%
    23:00 +23°C° 0 mm 1 mps 579 mmHg 18%

    27 May, Sunday

    Time Temperature Precipitation Wind Pressure Humidity
    00:00 +22°C° 0 mm 1 mps 578 mmHg 18%
    01:00 +22°C° 0 mm 1 mps 578 mmHg 19%
    02:00 +21°C° 0 mm 1 mps 578 mmHg 20%
    03:00 +21°C° 0 mm 1 mps 577 mmHg 21%
    04:00 +20°C° 0 mm 1 mps 577 mmHg 22%
    05:00 +20°C° 0 mm 1 mps 577 mmHg 22%
    06:00 +19°C° 0 mm 1 mps 578 mmHg 23%
    07:00 +21°C° 0 mm 1 mps 579 mmHg 22%
    08:00 +23°C° 0 mm 1 mps 580 mmHg 22%
    09:00 +25°C° 0 mm 2 mps 581 mmHg 21%
    10:00 +26°C° 0 mm 2 mps 582 mmHg 20%
    11:00 +27°C° 0 mm 2 mps 582 mmHg 18%
    12:00 +28°C° 0 mm 3 mps 582 mmHg 16%
    13:00 +29°C° 0 mm 3 mps 582 mmHg 16%
    14:00 +29°C° 0 mm 3 mps 581 mmHg 15%
    15:00 +29°C° 0 mm 4 mps 581 mmHg 14%
    16:00 +28°C° 0 mm 3 mps 581 mmHg 15%
    17:00 +28°C° 0 mm 3 mps 581 mmHg 15%
    18:00 +27°C° 0 mm 3 mps 580 mmHg 16%
    19:00 +26°C° 0 mm 2 mps 580 mmHg 18%
    20:00 +25°C° 0 mm 2 mps 580 mmHg 20%
    21:00 +24°C° 0 mm 1 mps 580 mmHg 22%
    22:00 +24°C° 0 mm 1 mps 580 mmHg 24%
    23:00 +23°C° 0 mm 1 mps 579 mmHg 25%
    Show more